EDT,Max TemperatureF,Mean TemperatureF,Min TemperatureF,Max Dew PointF,MeanDew PointF,Min DewpointF,Max Humidity, Mean Humidity, Min Humidity, Max Sea Level PressureIn, Mean Sea Level PressureIn, Min Sea Level PressureIn, Max VisibilityMiles, Mean VisibilityMiles, Min VisibilityMiles, Max Wind SpeedMPH, Mean Wind SpeedMPH, Max Gust SpeedMPH,PrecipitationIn, CloudCover, Events, WindDirDegrees
2013-3-1,35,32,29,31,25,19,89,76,63,30.04,29.97,29.89,10,10,6,13,7,17,0.01,8,Snow,320
2013-3-2,31,29,26,25,22,19,85,77,69,30.06,30.01,29.97,10,5,1,12,6,17,T,8,Snow,305
2013-3-3,29,27,25,22,19,15,81,72,63,30.11,30.05,30.01,10,8,2,17,7,22,T,8,Snow,290
2013-3-4,43,32,20,20,15,11,84,56,28,30.22,30.15,30.11,10,10,6,12,2,,0.00,2,,267
2013-3-5,49,39,29,41,28,19,96,68,39,30.11,29.81,29.55,10,8,4,17,5,24,0.51,8,Rain,84
2013-3-6,42,37,31,36,30,28,92,84,75,30.21,29.86,29.57,10,6,1,28,6,36,0.26,8,Rain-Snow,207
2013-3-7,42,38,33,30,28,26,82,69,55,30.36,30.29,30.18,10,8,4,14,7,17,T,8,,287
2013-3-8,47,38,29,28,25,22,75,58,41,30.49,30.42,30.35,10,10,8,14,6,18,0.00,3,,351
2013-3-9,61,43,24,30,25,20,88,57,25,30.44,30.31,30.17,10,9,6,9,2,12,0.00,0,,77
2013-3-10,74,58,42,31,29,26,62,41,19,30.17,30.07,29.96,10,10,9,18,7,24,0.00,1,,158
2013-3-11,62,53,44,51,39,29,93,61,29,29.96,29.84,29.70,10,8,2,21,10,31,0.62,4,Rain,168
2013-3-12,44,39,33,40,31,26,89,74,59,30.07,29.97,29.86,10,9,5,17,7,23,0.01,8,Rain,252
2013-3-13,37,33,28,30,24,16,89,70,51,30.27,30.12,30.00,10,7,0,25,10,33,0.02,7,Snow,269
2013-3-14,45,35,24,18,15,11,68,47,25,30.36,30.28,30.22,10,10,10,17,7,23,0.00,2,,268
2013-3-15,56,41,26,39,25,16,64,51,38,30.20,30.02,29.88,10,10,5,15,6,20,0.06,2,Rain,220
2013-3-16,63,50,37,48,42,31,96,76,56,30.01,29.78,29.63,10,8,2,23,8,31,0.16,7,Rain,239
2013-3-17,40,37,33,31,27,25,82,68,54,30.21,30.13,30.03,10,10,7,13,7,17,0.01,8,Rain,25
2013-3-18,51,43,34,47,38,28,96,85,74,30.09,29.85,29.71,10,7,2,22,9,32,0.53,8,Rain-Thunderstorm,124
2013-3-19,48,42,35,46,25,8,70,46,22,30.07,29.90,29.75,10,9,6,29,14,45,T,4,Rain,264
2013-3-20,47,37,26,16,13,10,58,42,25,30.08,29.99,29.86,10,10,10,26,12,39,0.00,3,,256
2013-3-21,33,27,20,14,10,6,68,52,35,30.05,29.99,29.95,10,9,3,17,8,24,T,6,Snow,280
2013-3-22,45,34,22,16,13,12,65,46,27,30.09,30.05,30.01,10,10,5,17,6,25,0.00,1,,267
2013-3-23,52,37,21,22,17,12,84,54,24,30.11,30.05,29.99,10,9,6,13,3,22,0.00,1,,304
2013-3-24,42,37,32,33,27,19,89,67,44,29.95,29.66,29.46,10,5,0,15,8,20,0.59,5,Fog-Rain-Snow,60
2013-3-25,37,35,33,34,31,28,96,86,75,29.84,29.57,29.43,10,5,1,16,8,23,0.14,8,Rain-Snow,224
2013-3-26,43,38,33,32,30,26,89,73,57,30.19,30.03,29.85,10,7,0,18,7,25,0.12,8,Fog-Rain-Snow,297
2013-3-27,44,39,33,29,26,22,82,64,45,30.28,30.23,30.17,10,10,7,20,8,25,T,8,Snow,266
2013-3-28,48,39,30,27,23,22,72,55,37,30.33,30.30,30.27,10,10,10,17,6,24,0.00,5,,279
2013-3-29,56,44,31,29,26,22,85,57,28,30.35,30.29,30.22,10,10,10,16,4,22,0.00,5,,278
2013-3-30,59,44,28,31,24,16,92,56,20,30.30,30.19,30.02,10,9,5,13,2,16,0.00,0,,175
2013-3-31,51,46,40,47,41,24,92,69,45,30.00,29.85,29.80,10,7,2,12,5,16,0.15,6,Rain,208